Regional Weather Roundup
Issued by NWS Cleveland, OH

Home | Current Version | Previous Version | Text Only | Print | Product List | Glossary Off
Versions: 1 2 3 4 5 6 7 8 9 10 11 12 13 14 15 16 17 18 19 20 21 22 23 24 25 26 27 28 29 30 31 32 33 34 35 36 37 38 39 40 41 42 43 44 45 46 47 48 49 50

913
ASUS41 KCLE 230510
RWRCLE
OHIO REGIONAL WEATHER ROUNDUP
NATIONAL WEATHER SERVICE CLEVELAND, OH
1200 AM EST TUE JAN 23 2018

NOTE: "FAIR" INDICATES FEW OR NO CLOUDS BELOW 12,000 FEET WITH NO
SIGNIFICANT WEATHER AND/OR OBSTRUCTIONS TO VISIBILITY.

OHZ001>008-015>018-024>027-034-035-043-044-230600-
   NORTHWEST OHIO

CITY           SKY/WX    TMP DP  RH WIND       PRES   REMARKS
DEFIANCE       FAIR      45  38  76 SW9G22    29.54R
FINDLAY        MOCLDY    48  42  80 S12       29.52S
TOLEDO EXPRESS LGT RAIN  49  49 100 S9        29.50F
TOLEDO EXEC    MOCLDY    48  43  82 S10       29.51F
LIMA           MOCLDY    49  41  74 W18       29.55S
$$

OHZ009>014-019>023-028>033-038-089-230600-
   NORTHEAST OHIO

CITY           SKY/WX    TMP DP  RH WIND       PRES   REMARKS
CLE-HOPKINS    CLOUDY    56  47  71 S13G23    29.55F
CLE-LAKEFRONT  MOCLDY    55  46  71 S15       29.52F
CUY CO. ARPT   NOT AVBL
LORAIN-ELYRIA  TSTM      46  39  76 W18G26    29.60R
ASHTABULA      MOCLDY    54  46  74 S10G20    29.58F
AKRON-CANTON   LGT RAIN  52  45  77 S9        29.56F
WOOSTER        LGT RAIN  52  47  83 S10       29.55F
MANSFIELD      RAIN      46  44  93 SW12G25   29.58F FOG
YOUNGSTOWN     MOCLDY    55  43  63 SE10      29.58F THUNDER
$$

OHZ042-051>053-060>062-070>072-077>081-230600-
  SOUTHWEST OHIO

CITY           SKY/WX    TMP DP  RH WIND       PRES   REMARKS
CINC-COVINGTON FAIR      49  37  63 W14G29    29.63R
CINC-LUNKEN    FAIR      50  42  74 W17G24    29.64R
HAMILTON       FAIR      50  42  74 SW8       29.63R
DAYTON         CLOUDY    49  44  83 SW18      29.60R
WRIGHT-PAT AFB CLOUDY    49  43  80 SW12      29.59S
DAYTON GENERAL MOCLDY    51  42  71 SW13      29.60R
WILMINGTON     MOCLDY    50  42  74 W16       29.61S
$$

OHZ036-037-039>041-045>050-054>059-063>069-073>076-082>088-230600-
  CENTRAL AND SOUTHEAST OHIO

CITY           SKY/WX    TMP DP  RH WIND       PRES   REMARKS
COLUMBUS       LGT RAIN  50  47  89 S12       29.61R
OSU AIRPORT    LGT RAIN  50  47  89 SW15      29.59S
BOLTON FIELD   LGT RAIN  49  44  82 SW12G20   29.62F
RICKENBACK AFB CLOUDY    47  47 100 SW14G25   29.62F
NEWARK         RAIN      49  45  86 SW15      29.62R FOG
MARION         LGT RAIN  46  43  89 S12       29.58R
LANCASTER      LGT RAIN  50  49  96 S13G21    29.61F
ZANESVILLE     CLOUDY    56  45  66 S15G22    29.57F
NEW PHILLY     NOT AVBL
$$




USA.gov is the U.S. government's official web portal to all federal, state and local government web resources and services.